Location: Detroit
(42.3310°N, 83.0460°W)
Time: 23:48:02
(UTC-04:00)

A-11 Canister half - Pass Details

Date: 07 February 2023
Orbit: 1526 x 1682 km, 47.3° (Epoch: 20 March)

Event Time Altitude Azimuth Distance (km) Brightness Sun altitude
Rises 06:20:18 0° 251° (WSW) 4,678 - -15.0°
Reaches altitude 10° 06:23:20 10° 253° (WSW) 3,691 - -14.4°
Exits shadow 06:24:19 14° 254° (WSW) 3,382 10.2 -14.2°
Maximum altitude 06:32:39 80° 340° (NNW) 1,555 9.0 -12.7°
Drops below altitude 10° 06:42:06 10° 68° (ENE) 3,736 12.0 -11.0°
Sets 06:45:12 0° 70° (ENE) 4,737 12.7 -10.4°
